When you browse on this site, cookies collect data to enhance your experience and personalize the content and advertising you see.
Visit our Privacy Policy to learn more. By continuing to use the site, you agree to this use of cookies and data.
  • In Hungary
  • List of Countries
  • For 7 days
  • Water Temperature
  • Weather Map
  • News
  • Weather Widgets
  • user-avatar
    Login

    Hourly Weather Hripelevo

    Today, 16 September, Monday

    Time Temperature Precipitation Wind Pressure Humidity
    00:00 +8°C° 0.4 mm 6 mps 736 mmHg 93%
    01:00 +9°C° 0.4 mm 6 mps 736 mmHg 92%
    02:00 +9°C° 0 mm 5 mps 735 mmHg 90%
    03:00 +8°C° 0.1 mm 5 mps 735 mmHg 91%
    04:00 +8°C° 0.1 mm 4 mps 735 mmHg 93%
    05:00 +8°C° 0.1 mm 4 mps 734 mmHg 94%
    06:00 +8°C° 0.1 mm 4 mps 734 mmHg 92%
    07:00 +9°C° 0.1 mm 5 mps 734 mmHg 89%
    08:00 +10°C° 0.1 mm 5 mps 734 mmHg 87%
    09:00 +10°C° 0.3 mm 5 mps 734 mmHg 84%
    10:00 +10°C° 0.3 mm 5 mps 734 mmHg 82%
    11:00 +12°C° 0.3 mm 5 mps 734 mmHg 80%
    12:00 +12°C° 0.5 mm 5 mps 734 mmHg 79%
    13:00 +11°C° 0.5 mm 6 mps 734 mmHg 79%
    14:00 +11°C° 0.5 mm 6 mps 734 mmHg 78%
    15:00 +12°C° 0.1 mm 5 mps 734 mmHg 80%
    16:00 +11°C° 0.1 mm 4 mps 734 mmHg 83%
    17:00 +11°C° 0.1 mm 4 mps 734 mmHg 85%
    18:00 +10°C° 0.1 mm 4 mps 733 mmHg 87%
    19:00 +10°C° 0.1 mm 4 mps 733 mmHg 88%
    20:00 +8°C° 0.1 mm 5 mps 733 mmHg 90%
    21:00 +8°C° 0 mm 5 mps 733 mmHg 90%
    22:00 +8°C° 0 mm 5 mps 733 mmHg 91%
    23:00 +7°C° 0 mm 5 mps 732 mmHg 92%

    Tomorrow, 17 September, Tuesday

    Time Temperature Precipitation Wind Pressure Humidity
    00:00 +8°C° 0 mm 5 mps 732 mmHg 91%
    01:00 +8°C° 0 mm 5 mps 732 mmHg 90%
    02:00 +8°C° 0 mm 5 mps 732 mmHg 88%
    03:00 +8°C° 0.5 mm 5 mps 732 mmHg 90%
    04:00 +7°C° 0.5 mm 4 mps 732 mmHg 91%
    05:00 +7°C° 0.5 mm 4 mps 732 mmHg 92%
    06:00 +7°C° 0.2 mm 5 mps 732 mmHg 90%
    07:00 +8°C° 0.2 mm 5 mps 733 mmHg 88%
    08:00 +8°C° 0.2 mm 5 mps 733 mmHg 86%
    09:00 +8°C° 0.3 mm 5 mps 733 mmHg 84%
    10:00 +9°C° 0.3 mm 5 mps 734 mmHg 83%
    11:00 +10°C° 0.3 mm 4 mps 734 mmHg 81%
    12:00 +10°C° 0.3 mm 4 mps 734 mmHg 78%
    13:00 +10°C° 0.3 mm 5 mps 734 mmHg 75%
    14:00 +10°C° 0.3 mm 5 mps 735 mmHg 71%
    15:00 +10°C° 0.1 mm 4 mps 735 mmHg 75%
    16:00 +10°C° 0.1 mm 3 mps 735 mmHg 79%
    17:00 +9°C° 0.1 mm 3 mps 735 mmHg 83%
    18:00 +9°C° 0.1 mm 3 mps 735 mmHg 86%
    19:00 +8°C° 0.1 mm 2 mps 735 mmHg 89%
    20:00 +7°C° 0.1 mm 2 mps 735 mmHg 92%
    21:00 +7°C° 0.1 mm 2 mps 735 mmHg 93%
    22:00 +7°C° 0.1 mm 2 mps 735 mmHg 93%
    23:00 +7°C° 0.1 mm 2 mps 735 mmHg 94%

    Day after tomorrow, 18 September, Wednesday

    Time Temperature Precipitation Wind Pressure Humidity
    00:00 +6°C° 0 mm 2 mps 735 mmHg 95%
    01:00 +6°C° 0 mm 2 mps 735 mmHg 95%
    02:00 +5°C° 0 mm 2 mps 735 mmHg 96%
    03:00 +5°C° 0 mm 2 mps 735 mmHg 96%
    04:00 +5°C° 0 mm 2 mps 735 mmHg 96%
    05:00 +6°C° 0 mm 1 mps 735 mmHg 96%
    06:00 +7°C° 0 mm 1 mps 735 mmHg 93%
    07:00 +8°C° 0 mm 1 mps 735 mmHg 90%
    08:00 +9°C° 0 mm 1 mps 736 mmHg 87%
    09:00 +9°C° 0.1 mm 1 mps 736 mmHg 84%
    10:00 +10°C° 0.1 mm 1 mps 736 mmHg 80%
    11:00 +10°C° 0.1 mm 2 mps 736 mmHg 77%
    12:00 +10°C° 0.3 mm 2 mps 736 mmHg 76%
    13:00 +10°C° 0.3 mm 2 mps 736 mmHg 76%
    14:00 +10°C° 0.3 mm 2 mps 736 mmHg 75%
    15:00 +10°C° 0.2 mm 2 mps 736 mmHg 79%
    16:00 +9°C° 0.2 mm 2 mps 736 mmHg 83%
    17:00 +8°C° 0.2 mm 2 mps 737 mmHg 87%
    18:00 +7°C° 0.1 mm 2 mps 737 mmHg 90%
    19:00 +6°C° 0.1 mm 2 mps 737 mmHg 92%
    20:00 +6°C° 0.1 mm 2 mps 738 mmHg 95%
    21:00 +5°C° 0 mm 2 mps 738 mmHg 95%
    22:00 +4°C° 0 mm 3 mps 738 mmHg 95%
    23:00 +3°C° 0 mm 3 mps 739 mmHg 95%

    19 September, Thursday

    Time Temperature Precipitation Wind Pressure Humidity
    00:00 +3°C° 0 mm 3 mps 739 mmHg 96%
    01:00 +2°C° 0 mm 3 mps 740 mmHg 96%
    02:00 +2°C° 0 mm 3 mps 740 mmHg 97%
    03:00 +2°C° 0 mm 3 mps 740 mmHg 97%
    04:00 +1°C° 0 mm 3 mps 741 mmHg 97%
    05:00 +1°C° 0 mm 3 mps 741 mmHg 97%
    06:00 +1°C° 0 mm 3 mps 742 mmHg 94%
    07:00 +2°C° 0 mm 3 mps 742 mmHg 92%
    08:00 +3°C° 0 mm 3 mps 743 mmHg 90%
    09:00 +3°C° 0 mm 3 mps 743 mmHg 87%
    10:00 +4°C° 0 mm 3 mps 744 mmHg 83%
    11:00 +5°C° 0 mm 3 mps 744 mmHg 80%
    12:00 +5°C° 0.1 mm 3 mps 745 mmHg 76%
    13:00 +7°C° 0.1 mm 3 mps 745 mmHg 71%
    14:00 +7°C° 0.1 mm 3 mps 745 mmHg 67%
    15:00 +7°C° 0.1 mm 3 mps 746 mmHg 70%
    16:00 +6°C° 0.1 mm 2 mps 746 mmHg 73%
    17:00 +6°C° 0.1 mm 2 mps 746 mmHg 75%
    18:00 +4°C° 0 mm 2 mps 746 mmHg 79%
    19:00 +3°C° 0 mm 2 mps 747 mmHg 82%
    20:00 +2°C° 0 mm 2 mps 747 mmHg 86%
    21:00 +2°C° 0 mm 2 mps 747 mmHg 87%
    22:00 +2°C° 0 mm 2 mps 747 mmHg 88%
    23:00 +2°C° 0 mm 2 mps 748 mmHg 89%

    20 September, Friday

    Time Temperature Precipitation Wind Pressure Humidity
    00:00 +2°C° 0 mm 2 mps 748 mmHg 89%
    01:00 +2°C° 0 mm 2 mps 748 mmHg 90%
    02:00 +2°C° 0 mm 2 mps 748 mmHg 91%
    03:00 +1°C° 0 mm 2 mps 748 mmHg 92%
    04:00 +1°C° 0 mm 2 mps 748 mmHg 93%
    05:00 -1°C° 0 mm 2 mps 748 mmHg 93%
    06:00 +2°C° 0 mm 2 mps 748 mmHg 87%
    07:00 +3°C° 0 mm 2 mps 748 mmHg 80%
    08:00 +4°C° 0 mm 2 mps 748 mmHg 74%
    09:00 +4°C° 0 mm 3 mps 748 mmHg 68%
    10:00 +5°C° 0 mm 3 mps 749 mmHg 63%
    11:00 +7°C° 0 mm 3 mps 749 mmHg 57%
    12:00 +7°C° 0.3 mm 3 mps 749 mmHg 58%
    13:00 +7°C° 0.3 mm 3 mps 749 mmHg 59%
    14:00 +6°C° 0.3 mm 4 mps 749 mmHg 59%
    15:00 +5°C° 0.1 mm 3 mps 749 mmHg 63%
    16:00 +6°C° 0.1 mm 2 mps 749 mmHg 67%
    17:00 +5°C° 0.1 mm 2 mps 749 mmHg 70%
    18:00 +3°C° 0 mm 2 mps 749 mmHg 74%
    19:00 +2°C° 0 mm 2 mps 750 mmHg 78%
    20:00 +1°C° 0 mm 2 mps 750 mmHg 82%
    21:00 +1°C° 0 mm 2 mps 750 mmHg 86%
    22:00 +1°C° 0 mm 2 mps 750 mmHg 90%
    23:00 -1°C° 0 mm 2 mps 750 mmHg 94%

    21 September, Saturday

    Time Temperature Precipitation Wind Pressure Humidity
    00:00 -1°C° 0 mm 2 mps 750 mmHg 94%
    01:00 -1°C° 0 mm 2 mps 751 mmHg 95%
    02:00 -2°C° 0 mm 2 mps 751 mmHg 96%
    03:00 -2°C° 0 mm 2 mps 751 mmHg 96%
    04:00 -2°C° 0 mm 2 mps 751 mmHg 96%
    05:00 -2°C° 0 mm 2 mps 751 mmHg 97%
    06:00 -1°C° 0 mm 2 mps 752 mmHg 90%
    07:00 +2°C° 0 mm 2 mps 752 mmHg 84%
    08:00 +3°C° 0 mm 2 mps 752 mmHg 78%
    09:00 +5°C° 0 mm 2 mps 752 mmHg 68%
    10:00 +5°C° 0 mm 3 mps 753 mmHg 59%
    11:00 +8°C° 0 mm 3 mps 753 mmHg 50%
    12:00 +8°C° 0 mm 3 mps 753 mmHg 50%
    13:00 +8°C° 0 mm 3 mps 752 mmHg 51%
    14:00 +8°C° 0 mm 3 mps 752 mmHg 52%
    15:00 +7°C° 0 mm 3 mps 752 mmHg 58%
    16:00 +6°C° 0 mm 2 mps 752 mmHg 65%
    17:00 +6°C° 0 mm 1 mps 752 mmHg 71%
    18:00 +5°C° 0 mm 1 mps 753 mmHg 75%
    19:00 +4°C° 0 mm 1 mps 753 mmHg 79%
    20:00 +3°C° 0 mm 1 mps 753 mmHg 83%
    21:00 +3°C° 0 mm 1 mps 753 mmHg 86%
    22:00 +2°C° 0 mm 1 mps 753 mmHg 88%
    23:00 +1°C° 0 mm 2 mps 753 mmHg 91%
    Show more